HST,Max TemperatureF,Mean TemperatureF,Min TemperatureF,Max Dew PointF,MeanDew PointF,Min DewpointF,Max Humidity, Mean Humidity, Min Humidity, Max Sea Level PressureIn, Mean Sea Level PressureIn, Min Sea Level PressureIn, Max VisibilityMiles, Mean VisibilityMiles, Min VisibilityMiles, Max Wind SpeedMPH, Mean Wind SpeedMPH, Max Gust SpeedMPH,PrecipitationIn, CloudCover, Events, WindDirDegrees
2012-11-1,81,72,62,64,61,59,92,72,48,30.01,29.97,29.91,10,10,10,12,2,,0.00,2,,94
2012-11-2,81,72,62,63,61,58,91,74,46,29.96,29.93,29.84,10,10,10,7,2,,0.00,1,,61
2012-11-3,81,72,63,66,63,59,93,76,50,29.98,29.94,29.90,10,10,10,10,2,20,0.00,3,,154
2012-11-4,81,70,60,65,63,59,93,75,51,29.98,29.95,29.92,10,10,10,10,3,,0.00,3,,333
2012-11-5,81,72,64,66,63,60,90,74,47,29.98,29.94,29.88,10,10,10,12,5,23,0.00,2,,31
2012-11-6,77,73,69,68,66,64,94,81,62,29.96,29.93,29.87,10,9,2,13,4,,0.09,7,Rain,22
2012-11-7,80,72,65,65,64,62,88,76,55,30.04,29.97,29.93,10,10,10,16,5,23,0.00,3,,29
2012-11-8,79,72,65,66,64,62,91,76,59,30.09,30.04,30.01,10,10,10,14,6,21,0.00,2,Rain,30
2012-11-9,79,74,68,65,63,60,83,70,54,30.09,30.04,29.99,10,10,8,15,6,20,0.01,4,Rain,59
2012-11-10,71,68,66,66,63,62,89,84,77,30.07,30.03,30.02,10,10,8,8,4,,0.03,4,Rain,14
2012-11-11,71,,71,62,62,62,72,72,72,30.06,30.06,30.06,10,10,10,0,0,,0.00,0,,-1
2012-11-12,69,,69,64,64,64,83,83,83,30.12,30.12,30.12,10,10,10,5,5,,0.00,0,,330
2012-11-13,77,73,69,66,63,62,79,71,59,30.11,30.07,30.03,10,8,7,15,8,20,0.00,2,,46
2012-11-14,77,72,68,66,64,60,88,78,56,30.19,30.13,30.08,10,10,5,16,7,18,0.01,5,Rain,77
2012-11-15,75,69,63,65,63,58,94,82,59,30.12,30.09,30.04,10,9,4,18,4,24,0.13,4,Rain,345
2012-11-16,75,70,64,66,63,59,94,84,57,30.12,30.08,30.02,10,9,4,22,5,28,0.13,5,Rain,41
2012-11-17,73,69,65,65,63,61,94,84,69,30.10,30.05,30.01,10,9,2,15,4,20,0.09,6,Rain,39
2012-11-18,77,70,64,64,63,60,90,74,59,30.12,30.06,30.02,10,10,10,15,6,22,0.00,3,,54
2012-11-19,78,70,63,66,63,61,94,78,55,30.09,30.05,30.00,10,10,4,15,6,23,0.03,3,Rain,49
2012-11-20,75,70,64,65,62,60,89,75,61,30.06,30.02,29.96,10,10,10,14,3,17,0.26,2,,96
2012-11-21,78,70,62,66,65,60,91,79,65,29.99,29.93,29.88,10,10,10,8,3,,0.00,5,Rain,153
2012-11-22,77,70,63,68,66,62,94,82,67,29.96,29.91,29.87,10,10,10,9,3,,0.00,5,,160
2012-11-23,79,72,64,68,66,62,93,79,60,29.99,29.92,29.89,10,10,10,13,4,,0.01,4,Rain-Thunderstorm,77
2012-11-24,79,71,63,64,63,61,91,79,58,29.99,29.95,29.90,10,10,10,12,5,18,0.00,1,,349
2012-11-25,77,70,63,66,63,60,90,76,61,30.02,29.98,29.92,10,10,10,16,7,25,0.00,2,,348
2012-11-26,73,70,66,63,61,56,83,74,60,30.06,30.00,29.96,10,10,10,16,7,18,0.00,6,Rain,6
2012-11-27,75,68,60,61,57,55,83,68,50,30.09,30.04,29.99,10,10,10,16,7,23,0.00,4,,16
2012-11-28,77,68,58,62,58,55,89,75,51,30.06,30.02,29.95,10,10,10,8,4,,0.00,2,,339
2012-11-29,75,66,58,64,62,56,93,78,65,30.06,30.00,29.96,10,10,10,8,3,,0.00,4,,190
2012-11-30,79,69,59,63,61,57,94,77,56,30.05,30.01,29.96,10,10,10,6,2,,0.00,2,,201